This demonstration page uses our WeatherBlox Daily Observations layout. Learn more.

Left ArrowRight Arrow

Hourly Observations for April 10, 2017

Temp ( °F °C ) Dew Point ( °F °C ) Humidity (%) Winds ( mph kmh ) Pressure ( in mb ) Visibility ( mi km ) Precip ( " mm )
12:15 am 00:15 Clear 45 7 39 4 81 81 W 9 15 29.83 1010 10 16 0.00 0.00
12:35 am 00:35 Clear 45 7 39 4 81 81 W 9 15 29.85 1011 10 16 0.00 0.00
12:55 am 00:55 Clear 45 7 39 4 81 81 W 8 13 29.85 1011 10 16 0.00 0.00
1:15 am 01:15 Clear 46 8 36 2 66 66 WNW 10 17 29.85 1011 10 16 0.00 0.00
1:35 am 01:35 Clear 46 8 36 2 66 66 WNW 15 24 29.85 1011 10 16 0.00 0.00
1:55 am 01:55 Clear 45 7 34 1 66 66 W 12 19 29.85 1011 10 16 0.00 0.00
2:15 am 02:15 Clear 45 7 34 1 66 66 W 10 17 29.85 1011 10 16 0.00 0.00
2:35 am 02:35 Clear 45 7 32 0 61 61 WNW 13 20 29.85 1011 10 16 0.00 0.00
2:55 am 02:55 Clear 43 6 30 -1 61 61 WNW 10 17 29.91 1013 10 16 0.00 0.00
3:15 am 03:15 Clear 43 6 30 -1 61 61 W 13 20 29.91 1013 10 16 0.00 0.00
3:35 am 03:35 Clear 43 6 30 -1 61 61 WNW 14 22 29.91 1013 10 16 0.00 0.00
3:55 am 03:55 Clear 43 6 30 -1 61 61 WNW 10 17 29.91 1013 10 16 0.00 0.00
4:15 am 04:15 Clear 43 6 30 -1 61 61 WNW 15 24 29.91 1013 10 16 0.00 0.00
4:35 am 04:35 Clear 41 5 30 -1 66 66 WNW 13 20 29.91 1013 10 16 0.00 0.00
4:55 am 04:55 Clear 41 5 30 -1 66 66 WNW 12 19 29.91 1013 10 16 0.00 0.00
5:15 am 05:15 Clear 41 5 28 -2 61 61 WNW 15 24 29.91 1013 10 16 0.00 0.00
5:35 am 05:35 Clear 41 5 28 -2 61 61 WNW 16 26 29.91 1013 10 16 0.00 0.00
5:55 am 05:55 Clear 39 4 28 -2 65 65 WNW 16 26 29.91 1013 10 16 0.00 0.00
6:15 am 06:15 Clear 39 4 28 -2 65 65 WNW 17 28 29.91 1013 10 16 0.00 0.00
6:35 am 06:35 Clear 39 4 28 -2 65 65 W 17 28 29.91 1013 10 16 0.00 0.00
6:55 am 06:55 Clear 39 4 28 -2 65 65 W 16 26 29.91 1013 10 16 0.00 0.00
7:15 am 07:15 Sunny 39 4 28 -2 65 65 W 14 22 29.91 1013 10 16 0.00 0.00
7:35 am 07:35 Sunny 39 4 28 -2 65 65 W 12 19 29.94 1014 10 16 0.00 0.00
7:55 am 07:55 Sunny 41 5 28 -2 61 61 W 17 28 29.94 1014 10 16 0.00 0.00
8:15 am 08:15 Mostly Sunny 43 6 30 -1 61 61 W 18 30 29.94 1014 10 16 0.00 0.00
8:35 am 08:35 Partly Cloudy 43 6 32 0 66 66 W 21 33 29.94 1014 10 16 0.00 0.00
8:55 am 08:55 Mostly Cloudy 45 7 34 1 66 66 WNW 24 39 29.94 1014 10 16 0.00 0.00
9:15 am 09:15 Cloudy 45 7 36 2 71 71 WNW 25 41 29.97 1015 10 16 0.00 0.00
9:35 am 09:35 Cloudy 45 7 36 2 71 71 NW 24 39 30.00 1016 10 16 0.00 0.00
9:55 am 09:55 Cloudy 43 6 34 1 71 71 NNW 21 33 30.03 1017 10 16 0.00 0.00
10:15 am 10:15 Cloudy 43 6 28 -2 57 57 NW 28 44 30.03 1017 9 14 0.00 0.00
10:35 am 10:35 Cloudy 43 6 30 -1 61 61 NW 21 33 30.06 1018 10 16 0.00 0.00
10:55 am 10:55 Cloudy 39 4 28 -2 65 65 NNW 24 39 30.12 1020 10 16 0.00 0.00
11:15 am 11:15 Cloudy 39 4 27 -3 61 61 NW 24 39 30.15 1021 10 16 0.00 0.00
11:35 am 11:35 Cloudy 41 5 28 -2 61 61 NNW 26 43 30.15 1021 10 16 0.00 0.00
11:55 am 11:55 Cloudy 41 5 27 -3 57 57 NW 21 33 30.15 1021 10 16 0.00 0.00
12:15 pm 12:15 Cloudy 39 4 27 -3 61 61 NW 20 31 30.18 1022 10 16 0.00 0.00
12:35 pm 12:35 Cloudy 41 5 27 -3 57 57 NW 20 31 30.18 1022 10 16 0.00 0.00
12:55 pm 12:55 Cloudy 43 6 27 -3 53 53 NW 21 33 30.15 1021 8 13 0.00 0.00
1:15 pm 13:15 Cloudy 45 7 28 -2 53 53 NNW 18 30 30.15 1021 10 16 0.00 0.00
1:35 pm 13:35 Cloudy 45 7 28 -2 53 53 NW 16 26 30.15 1021 10 16 0.00 0.00
1:55 pm 13:55 Cloudy 45 7 27 -3 49 49 NW 20 31 30.15 1021 10 16 0.00 0.00
2:15 pm 14:15 Cloudy 43 6 27 -3 53 53 NW 22 35 30.21 1023 10 16 0.00 0.00
2:35 pm 14:35 Cloudy 45 7 28 -2 53 53 NW 23 37 30.18 1022 10 16 0.00 0.00
2:55 pm 14:55 Cloudy 45 7 28 -2 53 53 NNW 21 33 30.18 1022 10 16 0.00 0.00
3:15 pm 15:15 Cloudy 45 7 28 -2 53 53 NNW 22 35 30.15 1021 10 16 0.00 0.00
3:35 pm 15:35 Cloudy 46 8 28 -2 50 50 NNW 21 33 30.15 1021 10 16 0.00 0.00
3:55 pm 15:55 Cloudy 46 8 30 -1 53 53 NW 20 31 30.15 1021 10 16 0.00 0.00
4:15 pm 16:15 Cloudy 48 9 30 -1 50 50 N 21 33 30.15 1021 10 16 0.00 0.00
4:35 pm 16:35 Mostly Cloudy 48 9 30 -1 50 50 NNW 20 31 30.18 1022 10 16 0.00 0.00
4:55 pm 16:55 Mostly Cloudy 48 9 30 -1 50 50 N 17 28 30.18 1022 10 16 0.00 0.00
5:15 pm 17:15 Mostly Cloudy 46 8 30 -1 53 53 N 20 31 30.18 1022 10 16 0.00 0.00
5:35 pm 17:35 Mostly Cloudy 46 8 30 -1 53 53 N 14 22 30.18 1022 10 16 0.00 0.00
5:55 pm 17:55 Mostly Sunny 46 8 30 -1 53 53 NNW 13 20 30.18 1022 10 16 0.00 0.00
6:15 pm 18:15 Sunny 46 8 30 -1 53 53 NNW 14 22 30.18 1022 10 16 0.00 0.00
6:35 pm 18:35 Sunny 46 8 30 -1 53 53 NNW 10 17 30.18 1022 10 16 0.00 0.00
6:55 pm 18:55 Sunny 46 8 28 -2 50 50 N 12 19 30.21 1023 10 16 0.00 0.00
7:15 pm 19:15 Sunny 46 8 28 -2 50 50 N 9 15 30.21 1023 10 16 0.00 0.00
7:35 pm 19:35 Sunny 46 8 28 -2 50 50 N 10 17 30.21 1023 10 16 0.00 0.00
7:55 pm 19:55 Sunny 43 6 28 -2 57 57 N 9 15 30.24 1024 10 16 0.00 0.00
8:15 pm 20:15 Clear 41 5 28 -2 61 61 NNE 8 13 30.24 1024 10 16 0.00 0.00
8:35 pm 20:35 Clear 37 3 28 -2 70 70 NNE 8 13 30.24 1024 10 16 0.00 0.00
8:55 pm 20:55 Clear 37 3 28 -2 70 70 NNE 6 9 30.24 1024 10 16 0.00 0.00
9:15 pm 21:15 Clear 36 2 27 -3 70 70 NE 8 13 30.27 1025 10 16 0.00 0.00
9:35 pm 21:35 Clear 36 2 27 -3 70 70 NE 6 9 30.30 1026 10 16 0.00 0.00
9:55 pm 21:55 Clear 36 2 27 -3 70 70 NE 5 7 30.30 1026 10 16 0.00 0.00
10:15 pm 22:15 Clear 34 1 27 -3 75 75 NNE 6 9 30.33 1027 10 16 0.00 0.00
10:35 pm 22:35 Clear 34 1 25 -4 70 70 NNE 6 9 30.33 1027 10 16 0.00 0.00
10:55 pm 22:55 Clear 32 0 25 -4 75 75 NNE 7 11 30.36 1028 10 16 0.00 0.00
11:15 pm 23:15 Clear 30 -1 25 -4 80 80 Calm 30.36 1028 10 16 0.00 0.00
11:35 pm 23:35 Clear 30 -1 27 -3 86 86 Calm 30.36 1028 10 16 0.00 0.00
11:55 pm 23:55 Clear 30 -1 25 -4 80 80 Calm 30.36 1028 10 16 0.00 0.00

Powered by AerisWeather